Location: Kitchener
(43.4500°N, 80.5000°W)
Time: 10:18:41
(UTC-05:00)

Envisat - Visible Passes

Search period start: 21 February 2018 00:00
Search period end: 03 March 2018 00:00
Orbit: 764 x 766 km, 98.2° (Epoch: 21 February)

Date Brightness Start Highest point End Pass type
(mag) Time Alt. Az. Time Alt. Az. Time Alt. Az.
21 Feb 3.7 18:56:03 10° SE 19:00:27 31° ENE 19:04:52 10° N visible
21 Feb 4.5 20:34:48 10° SSW 20:39:23 34° W 20:44:00 10° NNW visible
22 Feb 3.1 19:57:28 10° S 20:02:32 74° WSW 20:07:37 10° NNW visible
23 Feb 3.1 19:20:58 10° SE 19:25:52 52° ENE 19:30:48 10° N visible
23 Feb 5.4 21:01:31 10° SW 21:05:11 20° W 21:08:51 10° NW visible
24 Feb 4.0 18:45:19 10° ESE 18:49:25 25° ENE 18:53:30 10° N visible
24 Feb 4.1 20:23:23 10° S 20:28:12 42° W 20:33:01 10° NNW visible
25 Feb 2.9 19:46:19 10° SSE 19:51:23 88° ENE 19:56:30 10° NNW visible
25 Feb 6.0 21:29:42 10° WSW 21:31:05 11° W 21:32:29 10° WNW visible
26 Feb 3.4 19:10:03 10° SE 19:14:47 41° ENE 19:19:33 10° N visible
26 Feb 5.1 20:49:49 10° SSW 20:53:57 25° W 20:58:06 10° NW visible
27 Feb 4.3 18:34:42 10° ESE 18:38:23 21° ENE 18:42:05 10° NNE visible
27 Feb 3.7 20:12:03 10° S 20:17:00 53° W 20:22:00 10° NNW visible
28 Feb 2.9 19:35:14 10° SSE 19:40:16 71° ENE 19:45:21 10° N visible
28 Feb 5.8 21:17:07 10° WSW 21:19:49 14° W 21:22:30 10° WNW visible
01 Mar 3.7 18:59:12 10° SE 19:03:44 33° ENE 19:08:15 10° N visible
01 Mar 4.7 20:38:16 10° SSW 20:42:43 31° W 20:47:13 10° NNW visible
02 Mar 3.3 20:00:48 10° S 20:05:51 68° WSW 20:10:56 10° NNW visible
